Preview of NWS' New Version of Forecast
This preview is not operational and should not be used for support decisions.

Regional Weather Roundup (RWR)

Issued by National Weather Service (NWS)

                            
000
ASUS44 KMEG 260210
RWRTN 
TENNESSEE HOURLY STATE WEATHER ROUNDUP
NATIONAL WEATHER SERVICE MEMPHIS TN
900 PM CDT SUN AUG 25 2019

TNZ002-004-019-021-049-052-054-088>092-260300-
WEST TENNESSEE
  
CITY           SKY/WX    TMP DP  RH WIND       PRES   REMARKS
MEMPHIS INTL   CLOUDY    78  73  84 SE8       29.88R                  
NWS MEMPHIS      N/A     76 N/A N/A MISG        N/A                   
JACKSON        LGT RAIN  73  71  93 VRB6      29.94R                  
DYERSBURG      FAIR      74  73  97 SE6       29.92R                  
SOMERVILLE     CLOUDY    75  70  83 VRB3      29.89S                  
COVINGTON      CLOUDY    75  73  94 S6        29.90R FOG              
UNION CITY     CLOUDY    73  72  94 SE8       29.90R                  
PARIS          MOCLDY    72  70  94 SE10      29.92R                  
HUNTINGDON     MOCLDY    72  72 100 S10G16    29.93R                  
LEXINGTON      CLOUDY    75  73  94 VRB5G12   29.94R                  
SELMER         CLOUDY    72  70  94 S9        29.93S FOG              
SAVANNAH       CLOUDY    72  72 100 S3        29.94R                  
$$

TNZ008-025-027-028-033-062-065-066-260300-
NORTH MIDDLE TENNESSEE
  
CITY           SKY/WX    TMP DP  RH WIND       PRES   REMARKS
NASHVILLE      LGT RAIN  74  71  91 SE7       29.98S                  
DICKSON        CLOUDY    73  72  94 S9        29.95S                  
PORTLAND       CLOUDY    72  72 100 SE7       29.98S FOG              
CLARKSVILLE    LGT RAIN  72  72 100 SE8       29.93F                  
LEBANON        CLOUDY    73  72  94 S5        29.97R                  
SMYRNA         LGT RAIN  73  71  93 SE5       29.99R                  
MURFREESBORO   CLOUDY    73  70  88 SE5       29.97S                  
COOKEVILLE     CLOUDY    73  66  78 S7        30.02R                  
LIVINGSTON     CLOUDY    72  68  88 CALM      30.03R                  
GALLATIN       CLOUDY    73  72  94 CALM      30.01R FOG              
CROSSVILLE     CLOUDY    69  65  86 SE5       30.08R                  
ROCKWOOD       CLOUDY    72  70  94 CALM      30.07R                  
$$

TNZ061-075-076-078-094-096-097-260300-
SOUTH MIDDLE TENNESSEE
  
CITY           SKY/WX    TMP DP  RH WIND       PRES   REMARKS
LAWRENCEBURG   CLOUDY    72  70  94 SE8       29.98R                  
LEWISBURG      CLOUDY    72  70  94 SE3       29.98R                  
FAYETTEVILLE   CLOUDY    72  70  94 SE7       30.00R                  
TULLAHOMA      CLOUDY    72  68  88 SE7       30.00S                  
WINCHESTER     CLOUDY    73  66  78 S5G12     30.01S                  
MCMINNVILLE    CLOUDY    73  66  78 CALM      30.02R                  
COLUMBIA       CLOUDY    73  73 100 CALM      29.96R                  
SHELBYVILLE    CLOUDY    73  68  83 SE6       29.99S                  
$$

TNZ017-018-042-046-047-260300-
NORTHEAST TENNESSEE
  
CITY           SKY/WX    TMP DP  RH WIND       PRES   REMARKS
TRI CITIES     CLOUDY    70  57  63 E7        30.11S                  
ELIZABETHTON   CLOUDY    70  59  68 SE6       30.13R                  
GREENEVILLE    CLEAR     68  63  83 CALM      30.10R                  
$$

TNZ012-013-036-069-073-074-260300-
CENTRAL EAST TENNESSEE
  
CITY           SKY/WX    TMP DP  RH WIND       PRES   REMARKS
KNOXVILLE      LGT RAIN  71  70  96 SE3       30.04S FOG              
OAK RIDGE      CLOUDY    74  68  81 CALM      30.06R                  
DOWNTOWN KNOXV CLOUDY    72  72 100 CALM      30.05R FOG              
GATLINBURG     CLOUDY    72  72 100 CALM      30.05R                  
MORRISTOWN     MOCLDY    70  63  78 E8        30.06R                  
JACKSBORO      CLOUDY    72  70  94 CALM      30.09R                  
$$

TNZ083-085-099-260300-
SOUTHEAST TENNESSEE
  
CITY           SKY/WX    TMP DP  RH WIND       PRES   REMARKS
CHATTANOOGA    CLOUDY    74  68  81 S6        30.05R                  
DAYTON         CLOUDY    75  68  78 CALM      30.03R                  
$$

SKY/WX REPORTED AS FAIR MEANS FEW OR NO CLOUDS BELOW
12 THOUSAND FEET.